User: anonymous   Login
Location: Ellerstadt
(49.4644°N, 8.2615°E)
Time: 02:20:23
(UTC+00:00)
Language:

Tiros 1 - Orbit

View from above orbital plane
View from above orbital plane
View from above satellite
View from above satellite

Ground track
Ground track

The orbit data is extracted from the following two-line orbital elements,

1 00029U 60002B   21163.39239834 -.00000124  00000-0  12522-4 0  9997
2 00029  48.3809  49.8631 0024333 331.6393  28.3193 14.74433135271651
Epoch (UTC): 12 June 2021 09:25:03
Eccentricity: 0.0024333
inclination: 48.3809°
perigee height: 630 km
apogee height: 664 km
right ascension of ascending node: 49.8631°
argument of perigee: 331.6393°
revolutions per day: 14.74433135
mean anomaly at epoch: 28.3193°
orbit number at epoch: 27165

The dashed part of the orbit path shows where the satellite is in the earth's shadow,  

DLR